Location: Brantley
(31.5822°N, 86.2569°W)
Time: 01:14:59
(UTC+00:00)

Vanguard 2 - Pass Details

Date: 23 February 2026
Orbit: 553 x 2896 km, 32.9° (Epoch: 10 March)

Event Time Altitude Azimuth Distance (km) Brightness Sun altitude
Rises 06:59:37 0° 217° (SW) 6,220 - -64.0°
Reaches altitude 10° 07:04:49 10° 208° (SSW) 4,874 - -63.3°
Maximum altitude 07:15:29 31° 154° (SSE) 2,669 - -61.8°
Drops below altitude 10° 07:22:40 10° 96° (E) 3,244 - -60.7°
Sets 07:25:22 0° 85° (E) 3,925 - -60.3°
